Regional Weather Roundup
Issued by NWS Newport/Morehead, NC

Current Version | Previous Version | Graphics & Text | Print | Product List | Glossary Off
Versions: 1 2 3 4 5 6 7 8 9 10 11 12 13 14 15 16 17 18 19 20 21 22 23 24 25 26 27 28 29 30 31 32 33 34 35 36 37 38 39 40 41 42 43 44 45 46 47 48 49 50

000
ASUS42 KMHX 160825
RWRMHX
WEATHER ROUNDUP FOR EASTERN NORTH CAROLINA
NATIONAL WEATHER SERVICE NEWPORT/MOREHEAD CITY NC
400 AM EDT MON OCT 16 2017

NOTE: "FAIR" INDICATES FEW OR NO CLOUDS BELOW 12,000 FEET
WITH NO SIGNIFICANT WEATHER AND/OR OBSTRUCTIONS TO VISIBILITY

NCZ015>017-031-032-045>047-102-103-160900-
NORTH COAST

CITY           SKY/WX    TMP DP  RH WIND       PRES   REMARKS
EDENTON        CLEAR     70  68  93 CALM      29.96F
ELIZABETH CITY CLEAR     68  68 100 SW7       29.95F
KITTY HAWK     CLOUDY    70  70 100 CALM      29.95S
MANTEO         PTCLDY   N/A N/A N/A W7        29.97R

$$

NCZ045>047-081-094-103-104-160900-
CENTRAL COAST

CITY           SKY/WX    TMP DP  RH WIND       PRES   REMARKS
FRISCO         CLEAR     77  75  93 SW10      29.97F

$$

NCZ095-097-098-100-101-160900-
SOUTHERN COAST

CITY           SKY/WX    TMP DP  RH WIND       PRES   REMARKS
BEAUFORT       CLEAR     74  73  97 S8        29.97F
CEDAR ISLAND   NOT AVBL
JACKSONVILLE   MOCLDY    68  68 100 W9        29.98R
PINEY ISLAND     N/A    N/A N/A N/A S8        29.96F
WILMINGTON     CLEAR     69  68  96 NW3       29.98F


$$

NCZ011>013-027>030-043-044-078>080-089-090>093-098-160900-
COASTAL PLAIN

CITY           SKY/WX    TMP DP  RH WIND       PRES   REMARKS
AHOSKIE        MOCLDY    64  64  99 CALM      29.95F
CLINTON        CLOUDY    65  65 100 CALM      29.99S VSB 3/4
ELIZABETHTOWN  NOT AVBL
GOLDSBORO      CLEAR    N/A N/A N/A CALM      29.97F
GREENVILLE     CLEAR     64  64 100 CALM      29.98F FOG
HAVELOCK       MOCLDY    72  72 100 W6        29.98S
KENANSVILLE    MOCLDY    63  63 100 CALM      29.98S FOG
KINSTON        CLEAR     64  64  99 SW3       29.98S FOG
NEW BERN       CLOUDY    69  69 100 W3        29.99S FOG
RICHLANDS      CLOUDY    68  68 100 W7        29.99S FOG
ROCKY MOUNT    CLEAR     66  66 100 SW6       29.97F
WASHINGTON     CLEAR     66  65  97 CALM      29.98S
WHITEVILLE     CLEAR     65  64  98 CALM      29.98F

$$

AMZ130-135-150-152-154-156-158-170-250-252-270-ANZ085-086-088-633-658-670-160900-
MARINE OBSERVATIONS

STATION/POSITION TIME  TEMP    WIND        PRES    WAVE   SWELL
                       AIR SEA DIR/SP/G            HT/PER HT/PER
                 (UTC) (F)     (DEG/KT/KT) (MB)    (FT/S) (FT/S)
CHESAPEAKE LIGHT NOT AVBL
64 E VA BEACH    0750   72 71  230/ 14/ 16 1014.1    4/ 8   2/ 8
DUCK             0800   71 72  240/ 11/ 15 1014.1
2 E DUCK         0800      72                N/A     2/ 8
OREGON INLET     0800   75 75  210/ 13/ 15 1014.4
13E OREGON INLT  0748      73                N/A     3/ 8   2/ 8
HATTERAS CG      0800   76 78  220/  8/ 13 1014.7
DIAMOND BUOY     0750   79 77  220/ 12/ 16 1014.5    3/ 8   2/ 8
CAPE LOOKOUT     0800   76     230/  5/  7 1014.8
BEAUFORT LAB     0800   75 72  200/  8/ 10 1014.2
30 SE NEW RVR IN 0708   78     210/  6/  8 1015.2
30 SE NEW RVR IN NOT AVBL
27 SE WRIGHTSVLE 0708   78 78  190/  8/ 12 1015.3
5 SE WRIGHTSVLE  0708   76 77  220/  8/ 12 1015.1
225 S CAPE HAT   0750   78 80  160/  6/  8 1015.5    4/ 9   3/ 9
41 SE CHARLESTON 0810   80 82  200/ 10/ 14 1014.7

$$




USA.gov is the U.S. government's official web portal to all federal, state and local government web resources and services.